TimeCDT,TemperatureF,Dew PointF,Humidity,Sea Level PressureIn,VisibilityMPH,Wind Direction,Wind SpeedMPH,Gust SpeedMPH,PrecipitationIn,Events,Conditions,WindDirDegrees,DateUTC
12:15 AM,55.4,50.0,82,30.15,10.0,North,9.2,-,N/A,,Overcast,10,2012-10-05 05:15:00
12:35 AM,55.4,48.2,77,30.16,10.0,North,8.1,-,N/A,,Overcast,10,2012-10-05 05:35:00
12:55 AM,53.6,46.4,77,30.15,10.0,North,8.1,-,N/A,,Overcast,10,2012-10-05 05:55:00
1:15 AM,53.6,46.4,77,30.15,10.0,North,10.4,-,N/A,,Overcast,10,2012-10-05 06:15:00
1:35 AM,51.8,46.4,82,30.15,10.0,North,9.2,-,N/A,,Overcast,360,2012-10-05 06:35:00
1:55 AM,51.8,44.6,76,30.15,10.0,North,11.5,-,N/A,,Overcast,10,2012-10-05 06:55:00
2:15 AM,51.8,44.6,76,30.15,10.0,NNE,12.7,17.3,N/A,,Overcast,20,2012-10-05 07:15:00
2:35 AM,51.8,44.6,76,30.16,10.0,NNE,11.5,17.3,N/A,,Overcast,20,2012-10-05 07:35:00
2:55 AM,51.8,44.6,76,30.17,10.0,North,13.8,-,N/A,,Overcast,10,2012-10-05 07:55:00
3:15 AM,51.8,44.6,76,30.16,10.0,North,11.5,18.4,N/A,,Overcast,10,2012-10-05 08:15:00
3:35 AM,51.8,42.8,71,30.16,10.0,North,10.4,17.3,N/A,,Overcast,10,2012-10-05 08:35:00
3:55 AM,51.8,42.8,71,30.15,10.0,NNE,8.1,17.3,N/A,,Overcast,20,2012-10-05 08:55:00
4:15 AM,50.0,42.8,76,30.15,10.0,NNE,5.8,-,N/A,,Overcast,30,2012-10-05 09:15:00
4:35 AM,50.0,42.8,76,30.15,10.0,NNE,8.1,-,N/A,,Overcast,20,2012-10-05 09:35:00
4:55 AM,50.0,42.8,76,30.15,10.0,NNE,8.1,-,N/A,,Overcast,30,2012-10-05 09:55:00
5:15 AM,50.0,42.8,76,30.14,10.0,NNE,8.1,-,N/A,,Overcast,20,2012-10-05 10:15:00
5:35 AM,50.0,42.8,76,30.14,10.0,NE,8.1,-,N/A,,Overcast,40,2012-10-05 10:35:00
5:55 AM,50.0,41.0,71,30.14,10.0,NNE,11.5,-,N/A,,Overcast,30,2012-10-05 10:55:00
6:15 AM,50.0,41.0,71,30.15,10.0,NE,6.9,-,N/A,Rain-Thunderstorm,Thunderstorms and Rain,50,2012-10-05 11:15:00
6:35 AM,50.0,42.8,76,30.14,10.0,NNE,10.4,-,0.01,Thunderstorm,Thunderstorm,20,2012-10-05 11:35:00
6:55 AM,50.0,42.8,76,30.15,10.0,North,9.2,-,0.01,Thunderstorm,Overcast,360,2012-10-05 11:55:00
7:15 AM,48.2,42.8,82,30.14,10.0,NE,9.2,-,N/A,,Overcast,40,2012-10-05 12:15:00
7:35 AM,48.2,44.6,87,30.15,10.0,North,9.2,-,N/A,Thunderstorm,Overcast,10,2012-10-05 12:35:00
7:55 AM,48.2,44.6,87,30.15,10.0,NNE,8.1,-,N/A,,Overcast,20,2012-10-05 12:55:00
8:15 AM,48.2,44.6,87,30.15,10.0,North,9.2,-,N/A,,Overcast,10,2012-10-05 13:15:00
8:35 AM,48.2,44.6,87,30.15,10.0,NNE,6.9,17.3,N/A,,Overcast,20,2012-10-05 13:35:00
8:55 AM,48.2,44.6,87,30.15,10.0,NNE,11.5,16.1,N/A,,Overcast,30,2012-10-05 13:55:00
9:15 AM,46.4,44.6,93,30.15,10.0,NNE,8.1,-,N/A,Thunderstorm,Overcast,30,2012-10-05 14:15:00
9:35 AM,46.4,44.6,93,30.16,7.0,NNE,6.9,-,N/A,,Drizzle,20,2012-10-05 14:35:00
9:55 AM,46.4,44.6,93,30.15,4.0,NNE,6.9,16.1,N/A,,Drizzle,30,2012-10-05 14:55:00
10:15 AM,46.4,44.6,93,30.15,5.0,NNE,11.5,20.7,N/A,Rain,Light Rain,30,2012-10-05 15:15:00
10:35 AM,46.4,46.4,100,30.15,5.0,NE,8.1,-,N/A,,Overcast,40,2012-10-05 15:35:00
10:55 AM,46.4,46.4,100,30.14,5.0,NNE,5.8,-,N/A,,Drizzle,30,2012-10-05 15:55:00
11:35 AM,46.4,44.6,93,30.13,7.0,NE,9.2,18.4,N/A,,Drizzle,50,2012-10-05 16:35:00
12:15 PM,46.4,46.4,100,30.14,7.0,NNE,6.9,-,N/A,,Overcast,20,2012-10-05 17:15:00
12:35 PM,46.4,46.4,100,30.15,7.0,NNE,9.2,-,N/A,,Overcast,30,2012-10-05 17:35:00
12:55 PM,46.4,44.6,93,30.15,5.0,NNE,13.8,18.4,N/A,Rain,Rain,20,2012-10-05 17:55:00
1:35 PM,46.4,44.6,93,30.15,4.0,NNE,10.4,16.1,N/A,Rain,Light Rain,20,2012-10-05 18:35:00
1:55 PM,46.4,44.6,93,30.16,5.0,North,13.8,-,0.01,Rain,Light Rain,360,2012-10-05 18:55:00
2:15 PM,46.4,44.6,93,30.14,4.0,NNE,11.5,-,N/A,Rain,Light Rain,20,2012-10-05 19:15:00
2:35 PM,46.4,44.6,93,30.15,4.0,North,10.4,17.3,N/A,Rain,Light Rain,10,2012-10-05 19:35:00
2:55 PM,46.4,44.6,93,30.15,7.0,North,13.8,18.4,N/A,,Overcast,10,2012-10-05 19:55:00
3:15 PM,46.4,44.6,93,30.15,4.0,North,12.7,20.7,N/A,Rain,Rain,360,2012-10-05 20:15:00
3:35 PM,44.6,42.8,93,30.18,3.0,North,18.4,25.3,0.01,Rain,Light Rain,10,2012-10-05 20:35:00
3:55 PM,44.6,42.8,93,30.18,10.0,North,13.8,23.0,0.01,,Overcast,10,2012-10-05 20:55:00
4:15 PM,44.6,42.8,93,30.17,10.0,NNE,11.5,18.4,N/A,,Overcast,20,2012-10-05 21:15:00
4:35 PM,44.6,41.0,87,30.18,10.0,North,15.0,-,N/A,,Overcast,10,2012-10-05 21:35:00
4:55 PM,44.6,41.0,87,30.18,10.0,North,12.7,18.4,N/A,,Overcast,10,2012-10-05 21:55:00
5:15 PM,44.6,41.0,87,30.18,10.0,NNE,11.5,16.1,N/A,,Overcast,20,2012-10-05 22:15:00
5:35 PM,42.8,41.0,93,30.18,10.0,North,12.7,20.7,N/A,,Overcast,10,2012-10-05 22:35:00
5:55 PM,44.6,41.0,87,30.19,10.0,North,11.5,17.3,N/A,,Overcast,10,2012-10-05 22:55:00
6:15 PM,42.8,39.2,87,30.18,10.0,NNE,8.1,-,N/A,,Overcast,20,2012-10-05 23:15:00
6:35 PM,42.8,39.2,87,30.19,10.0,NNE,9.2,-,N/A,,Mostly Cloudy,20,2012-10-05 23:35:00
6:55 PM,42.8,37.4,81,30.20,10.0,NNE,8.1,17.3,N/A,,Scattered Clouds,20,2012-10-05 23:55:00
7:15 PM,42.8,37.4,81,30.21,10.0,NNE,9.2,-,N/A,,Clear,20,2012-10-06 00:15:00
7:35 PM,42.8,37.4,81,30.22,10.0,NNE,8.1,-,N/A,,Mostly Cloudy,20,2012-10-06 00:35:00
7:55 PM,41.0,37.4,87,30.22,10.0,NNE,3.5,-,N/A,,Scattered Clouds,30,2012-10-06 00:55:00
8:15 PM,41.0,37.4,87,30.23,10.0,NNE,4.6,-,N/A,,Scattered Clouds,30,2012-10-06 01:15:00
8:35 PM,41.0,37.4,87,30.23,10.0,NNE,4.6,-,N/A,,Clear,30,2012-10-06 01:35:00
8:55 PM,41.0,37.4,87,30.25,10.0,NNE,4.6,-,N/A,,Clear,20,2012-10-06 01:55:00
9:15 PM,39.2,37.4,93,30.25,10.0,Calm,Calm,-,N/A,,Clear,0,2012-10-06 02:15:00
9:35 PM,39.2,35.6,87,30.24,10.0,NE,3.5,-,N/A,,Clear,50,2012-10-06 02:35:00
9:55 PM,37.4,35.6,93,30.24,10.0,ENE,3.5,-,N/A,,Clear,60,2012-10-06 02:55:00
10:35 PM,37.4,35.6,93,30.24,10.0,NNE,4.6,-,N/A,,Clear,30,2012-10-06 03:35:00
10:55 PM,37.4,35.6,93,30.24,10.0,NNE,4.6,-,N/A,,Clear,30,2012-10-06 03:55:00
11:15 PM,37.4,35.6,93,30.25,10.0,NNE,4.6,-,N/A,,Clear,20,2012-10-06 04:15:00
11:35 PM,37.4,35.6,93,30.25,10.0,North,6.9,-,N/A,,Clear,10,2012-10-06 04:35:00
11:55 PM,35.6,35.6,100,30.25,10.0,North,5.8,-,N/A,,Clear,10,2012-10-06 04:55:00